Retour au catalogue

SL-19 DEB

ActifSSO
NORAD 36038·DEBRIS·🇷🇺 Russia

Lancé Nov 2, 2009 depuis Plesetsk Cosmodrome

Loading…

Prochains Passages (prochaines 24 heures)

TLE

FraisSource: Space-Track

Époque: Sep 14, 2026, 11:03 UTC

1 36038U 09059C   26257.46076238  .00000493  00000-0  11146-3 0  9993
2 36038  98.1855  79.9644 0008401 290.0808  98.3294 14.60413546896098

Suivez SL-19 DEB en temps réel avec AllMySat

Download on the App Store